Regional Weather Roundup
Issued by NWS Charleston, WV

Home | Current Version | Previous Version | Graphics & Text | Print | Product List | Glossary On
Versions: 1 2 3 4 5 6 7 8 9 10 11 12 13 14 15 16 17 18 19 20 21 22 23 24 25 26 27 28 29 30 31 32 33 34 35 36 37 38 39 40 41 42 43 44 45 46 47 48 49 50
000
ASUS41 KRLX 231810
RWRRLX
West Virginia Regional Weather Roundup
National Weather Service Charleston WV
100 PM EST MON JAN 23 2017

Note: "fair" indicates few or no clouds below 12,000 feet with no
significant weather and/or obstructions to visibility.

WVZ003-231900-
Northern Panhandle of West Virginia

CITY           SKY/WX    TMP DP  RH WIND       PRES   REMARKS
WHEELING       RAIN      43  40  89 E6        29.52R FOG
$$

WVZ009-231900-
Northwest West Virginia

CITY           SKY/WX    TMP DP  RH WIND       PRES   REMARKS
PARKERSBURG    RAIN      46  43  89 NE12      29.48S FOG
$$

WVZ006-231900-
Western West Virginia

CITY           SKY/WX    TMP DP  RH WIND       PRES   REMARKS
HUNTINGTON     LGT RAIN  50  46  86 N9        29.41S
$$

WVZ015-231900-
West Central West Virginia

CITY           SKY/WX    TMP DP  RH WIND       PRES   REMARKS
CHARLESTON     HVY RAIN  47  43  86 NE9       29.40S FOG
$$

WVZ022-031-231900-
North Central West Virginia

CITY           SKY/WX    TMP DP  RH WIND       PRES   REMARKS
CLARKSBURG     HVY RAIN  42  38  85 NE7       29.45F FOG
MORGANTOWN     LGT RAIN  43  36  76 NE12G21   29.48S
$$

WVZ025-035-042-045-231900-
Southern West Virginia

CITY           SKY/WX    TMP DP  RH WIND       PRES   REMARKS
BECKLEY        LGT RAIN  44  42  93 NE10      29.35S FOG
LOGAN          LGT RAIN  46  46 100 NE5       29.37S
BLUEFIELD      LGT RAIN  43  42  97 N10       29.33S FOG
LEWISBURG      CLOUDY    43  37  80 E14G22    29.34F
$$

WVZ047-231900-
Northern Mountains of West Virginia

CITY           SKY/WX    TMP DP  RH WIND       PRES   REMARKS
ELKINS         LGT RAIN  39  34  82 VRB5      29.42S
$$

WVZ052-231900-
Eastern Panhandle of West Virginia

CITY           SKY/WX    TMP DP  RH WIND       PRES   REMARKS
MARTINSBURG    RAIN      39  38  96 NE8       29.52R FOG
PETERSBURG     MIX PCPN  40  38  91 NW3       29.52R
$$



USA.gov is the U.S. government's official web portal to all federal, state and local government web resources and services.